Benson, MN

9:58 AM CDT on May 29, 2017 (GMT -0500)
Benson Municipal

Weather History for KBBB - October, 2012

Change the Weather History Date:

Wednesday, October 10, 2012

  Actual Average Record
Temperature  
Mean Temperature 37 °F -  
Max Temperature 53 °F 60 °F 85 °F (1955)
Min Temperature 21 °F 37 °F 19 °F (1970)
Degree Days  
Heating Degree Days 28    
Moisture  
Dew Point 25 °F    
Average Humidity 57    
Maximum Humidity 93    
Minimum Humidity 28    
Precipitation  
Precipitation 0.00 in - - ()
Sea Level Pressure  
Sea Level Pressure 29.98 in    
Wind  
Wind Speed 8 mph (West)    
Max Wind Speed 20 mph    
Max Gust Speed 26 mph    
Visibility 10 miles    
Events      
Averages and records for this station are not official NWS values.
T = Trace of Precipitation, MM = Missing Value Source: NWS Daily Summary

Daily Weather History Graph

Daily Weather History Graph

Search for Another Location

Airport or City:

Trip Planner

Search our weather history database for the weather conditions in past years. The results will help you decide how hot, cold, wet, or windy it might be!

Date:

Astronomy

Oct. 10, 2012 Rise Set
Actual Time 7:32 AM CDT 6:45 PM CDT
Civil Twilight 7:03 AM CDT 7:14 PM CDT
Nautical Twilight 6:29 AM CDT 7:48 PM CDT
Astronomical Twilight 5:54 AM CDT 8:23 PM CDT
Moon 1:56 AM CDT (10/10) 4:00 PM CDT (10/10)
Length of Visible Light 12h 11m
Length of Day
11h 12m
Waning Crescent, 27% of the Moon is Illuminated
Oct 10
Waning Crescent
Oct 15
New
Oct 21
First Quarter
Oct 29
Full
Nov 6
Last Quarter

Hourly Weather History & Observations

Time (CDT) Temp. Windchill Dew Point Humidity Pressure Visibility Wind Dir Wind Speed Gust Speed Precip Events Conditions
12:13 AM 37.4 °F 31.4 °F 24.8 °F 60% 30.02 in 10.0 mi NW 8.1 mph - N/A   Overcast
12:33 AM 35.6 °F 28.6 °F 24.8 °F 65% 30.02 in 10.0 mi NW 9.2 mph - N/A   Mostly Cloudy
12:53 AM 33.8 °F 26.4 °F 26.6 °F 75% 30.03 in 10.0 mi NW 9.2 mph - N/A   Scattered Clouds
1:13 AM 32.0 °F 25.6 °F 24.8 °F 75% 30.03 in 10.0 mi NW 6.9 mph - N/A   Clear
1:32 AM 32.0 °F 24.2 °F 26.6 °F 80% 30.03 in 10.0 mi NNW 9.2 mph - N/A   Clear
1:53 AM 30.2 °F 21.9 °F 24.8 °F 80% 30.04 in 10.0 mi NW 9.2 mph - N/A   Clear
2:13 AM 30.2 °F 22.6 °F 24.8 °F 80% 30.04 in 10.0 mi NNW 8.1 mph - N/A   Clear
2:32 AM 30.2 °F 21.9 °F 26.6 °F 86% 30.04 in 10.0 mi NNW 9.2 mph - N/A   Scattered Clouds
2:53 AM 30.2 °F 22.6 °F 26.6 °F 86% 30.04 in 10.0 mi NNW 8.1 mph - N/A   Mostly Cloudy
3:13 AM 30.2 °F 21.9 °F 26.6 °F 86% 30.04 in 10.0 mi NW 9.2 mph - N/A   Scattered Clouds
3:32 AM 28.4 °F 20.4 °F 24.8 °F 86% 30.04 in 10.0 mi NW 8.1 mph - N/A   Clear
3:53 AM 26.6 °F 18.2 °F 23.0 °F 86% 30.04 in 10.0 mi NNW 8.1 mph - N/A   Clear
4:13 AM 26.6 °F 18.2 °F 23.0 °F 86% 30.05 in 10.0 mi NW 8.1 mph - N/A   Clear
4:32 AM 24.8 °F 16.9 °F 21.2 °F 86% 30.05 in 10.0 mi NNW 6.9 mph - N/A   Clear
4:53 AM 24.8 °F 20.5 °F 21.2 °F 86% 30.06 in 10.0 mi NW 3.5 mph - N/A   Scattered Clouds
5:13 AM 24.8 °F 17.9 °F 23.0 °F 93% 30.05 in 10.0 mi NNW 5.8 mph - N/A   Scattered Clouds
5:32 AM 24.8 °F 20.5 °F 23.0 °F 93% 30.05 in 10.0 mi North 3.5 mph - N/A   Clear
5:53 AM 24.8 °F 20.5 °F 21.2 °F 86% 30.05 in 10.0 mi North 3.5 mph - N/A   Clear
6:13 AM 24.8 °F - 23.0 °F 93% 30.05 in 10.0 mi Calm Calm - N/A   Clear
6:32 AM 24.8 °F 20.5 °F 23.0 °F 93% 30.06 in 10.0 mi WNW 3.5 mph - N/A   Clear
6:53 AM 23.0 °F 18.4 °F 21.2 °F 93% 30.07 in 10.0 mi NW 3.5 mph - N/A   Scattered Clouds
7:33 AM 21.2 °F 13.6 °F 19.4 °F 93% 30.08 in 10.0 mi WSW 5.8 mph - N/A   Clear
7:53 AM 23.0 °F 18.4 °F 21.2 °F 93% 30.08 in 10.0 mi WSW 3.5 mph - N/A   Scattered Clouds
8:12 AM 28.4 °F 22.2 °F 26.6 °F 93% 30.07 in 10.0 mi West 5.8 mph - N/A   Overcast
8:33 AM 30.2 °F - 28.4 °F 93% 30.08 in 10.0 mi Calm Calm - N/A   Overcast
8:53 AM 30.2 °F 25.4 °F 28.4 °F 93% 30.07 in 10.0 mi West 4.6 mph - N/A   Mostly Cloudy
9:12 AM 33.8 °F - 30.2 °F 87% 30.07 in 10.0 mi Calm Calm - N/A   Scattered Clouds
9:33 AM 35.6 °F 31.7 °F 30.2 °F 81% 30.08 in 10.0 mi West 4.6 mph - N/A   Clear
9:53 AM 37.4 °F 31.4 °F 30.2 °F 75% 30.08 in 10.0 mi West 8.1 mph - N/A   Clear
10:12 AM 37.4 °F 32.1 °F 30.2 °F 75% 30.07 in 10.0 mi West 6.9 mph - N/A   Clear
10:33 AM 42.8 °F 36.6 °F 30.2 °F 61% 30.08 in 10.0 mi WNW 11.5 mph - N/A   Clear
10:53 AM 42.8 °F 37.0 °F 30.2 °F 61% 30.08 in 10.0 mi West 10.4 mph - N/A   Clear
11:12 AM 44.6 °F 40.2 °F 30.2 °F 57% 30.08 in 10.0 mi West 8.1 mph - N/A   Clear
11:33 AM 44.6 °F 43.1 °F 28.4 °F 53% 30.07 in 10.0 mi WNW 3.5 mph - N/A   Clear
11:53 AM 48.2 °F - 28.4 °F 46% 30.07 in 10.0 mi WNW 8.1 mph - N/A   Clear
12:12 PM 48.2 °F - 28.4 °F 46% 30.07 in 10.0 mi NW 9.2 mph - N/A   Clear
12:33 PM 50.0 °F - 28.4 °F 43% 30.07 in 10.0 mi West 11.5 mph 16.1 mph N/A   Clear
12:53 PM 48.2 °F - 26.6 °F 43% 30.05 in 10.0 mi West 11.5 mph 16.1 mph N/A   Scattered Clouds
1:12 PM 51.8 °F - 24.8 °F 35% 30.05 in 10.0 mi NW 12.7 mph 18.4 mph N/A   Scattered Clouds
1:33 PM 53.6 °F - 24.8 °F 33% 30.04 in 10.0 mi West 13.8 mph 17.3 mph N/A   Scattered Clouds
1:52 PM 53.6 °F - 23.0 °F 30% 30.03 in 10.0 mi NW 10.4 mph 16.1 mph N/A   Scattered Clouds
2:13 PM 53.6 °F - 23.0 °F 30% 30.01 in 10.0 mi West 6.9 mph 16.1 mph N/A   Scattered Clouds
2:33 PM 53.6 °F - 23.0 °F 30% 30.00 in 10.0 mi NW 9.2 mph 17.3 mph N/A   Mostly Cloudy
2:52 PM 53.6 °F - 21.2 °F 28% 30.00 in 10.0 mi WNW 13.8 mph 19.6 mph N/A   Overcast
3:13 PM 51.8 °F - 21.2 °F 30% 30.00 in 10.0 mi West 11.5 mph - N/A   Mostly Cloudy
3:33 PM 51.8 °F - 21.2 °F 30% 29.98 in 10.0 mi West 8.1 mph - N/A   Mostly Cloudy
3:52 PM 53.6 °F - 21.2 °F 28% 29.97 in 10.0 mi West 10.4 mph - N/A   Scattered Clouds
4:13 PM 53.6 °F - 21.2 °F 28% 29.95 in 10.0 mi West 8.1 mph - N/A   Scattered Clouds
4:33 PM 53.6 °F - 21.2 °F 28% 29.94 in 10.0 mi West 8.1 mph - N/A   Mostly Cloudy
4:52 PM 53.6 °F - 21.2 °F 28% 29.94 in 10.0 mi West 5.8 mph - N/A   Overcast
5:13 PM 53.6 °F - 21.2 °F 28% 29.93 in 10.0 mi SSW 3.5 mph - N/A   Mostly Cloudy
5:33 PM 53.6 °F - 21.2 °F 28% 29.92 in 10.0 mi South 5.8 mph - N/A   Scattered Clouds
5:52 PM 53.6 °F - 21.2 °F 28% 29.91 in 10.0 mi South 5.8 mph - N/A   Scattered Clouds
6:13 PM 53.6 °F - 21.2 °F 28% 29.90 in 10.0 mi South 5.8 mph - N/A   Scattered Clouds
6:33 PM 51.8 °F - 21.2 °F 30% 29.89 in 10.0 mi South 5.8 mph - N/A   Mostly Cloudy
6:52 PM 51.8 °F - 21.2 °F 30% 29.88 in 10.0 mi South 5.8 mph - N/A   Scattered Clouds
7:13 PM 51.8 °F - 21.2 °F 30% 29.87 in 10.0 mi South 9.2 mph - N/A   Clear
7:33 PM 51.8 °F - 23.0 °F 33% 29.86 in 10.0 mi South 8.1 mph - N/A   Clear
7:52 PM 48.2 °F - 23.0 °F 37% 29.86 in 10.0 mi South 8.1 mph - N/A   Scattered Clouds
8:13 PM 48.2 °F - 23.0 °F 37% 29.84 in 10.0 mi South 9.2 mph - N/A   Scattered Clouds
8:32 PM 48.2 °F - 23.0 °F 37% 29.83 in 10.0 mi South 10.4 mph - N/A   Scattered Clouds
8:53 PM 50.0 °F - 23.0 °F 35% 29.82 in 10.0 mi South 10.4 mph - N/A   Scattered Clouds
9:13 PM 50.0 °F - 24.8 °F 37% 29.82 in 10.0 mi South 10.4 mph - N/A   Scattered Clouds
9:32 PM 50.0 °F - 24.8 °F 37% 29.81 in 10.0 mi SSW 10.4 mph - N/A   Scattered Clouds
9:53 PM 51.8 °F - 26.6 °F 38% 29.80 in 10.0 mi SSW 11.5 mph - N/A   Scattered Clouds
10:13 PM 51.8 °F - 26.6 °F 38% 29.79 in 10.0 mi SSW 9.2 mph - N/A   Clear
10:32 PM 51.8 °F - 28.4 °F 41% 29.78 in 10.0 mi SW 11.5 mph - N/A   Clear
10:53 PM 51.8 °F - 28.4 °F 41% 29.78 in 10.0 mi SW 9.2 mph - N/A   Clear
11:13 PM 51.8 °F - 30.2 °F 44% 29.78 in 10.0 mi WSW 8.1 mph - N/A   Clear
11:32 PM 51.8 °F - 30.2 °F 44% 29.82 in 10.0 mi North 19.6 mph 26.5 mph N/A   Clear
11:53 PM 50.0 °F - 30.2 °F 47% 29.81 in 10.0 mi North 5.8 mph - N/A   Scattered Clouds